Regional Weather Roundup
Issued by NWS Upton, NY

Current Version | Previous Version | Text Only | Print | Product List | Glossary On
Versions: 1 2 3 4 5 6 7 8 9 10 11 12 13 14 15 16 17 18 19 20 21 22 23 24 25 26 27 28 29 30 31 32 33 34 35 36 37 38 39 40 41 42 43 44 45 46 47 48 49 50
000
ASUS41 KOKX 181108
RWROKX

REGIONAL WEATHER ROUNDUP
NATIONAL WEATHER SERVICE NEW YORK NY
700 AM EDT SAT APR 18 2015

NOTE: "FAIR" INDICATES FEW OR NO CLOUDS BELOW 12,000 FEET WITH NO
SIGNIFICANT WEATHER AND/OR OBSTRUCTIONS TO VISIBILITY.

NYZ071-072-176-178-NJZ106-104-181200-
NEW YORK CITY METRO AREA


CITY           SKY/WX    TMP DP  RH WIND       PRES   REMARKS
CENTRAL PARK   CLEAR     59  43  55 NW5       30.01R
LAGUARDIA APRT PTCLDY    57  44  62 CALM      29.97R
KENNEDY INTL   PTCLDY    51  44  77 CALM      29.99R
NEWARK/LIBERTY PTCLDY    55  47  74 SW3       29.99R
BRNX BOT. GARD   N/A     55  43  62 CALM      29.99S
TETERBORO      CLEAR     51  45  79 CALM      29.97R
$$

NYZ177-179-078>081-181200-
LONG ISLAND NEW YORK

CITY           SKY/WX    TMP DP  RH WIND       PRES   REMARKS
FARMINGDALE    CLEAR     52  48  86 CALM      29.98R
ISLIP          PTCLDY    48  46  93 CALM      29.97R
SHIRLEY        CLEAR     46  45  96 CALM      29.98R
WESTHAMPTON    CLEAR     40  39  97 CALM      29.99R
MONTAUK POINT    N/A     49  45  86 CALM      29.98R
$$

NYZ052-065-067-181200-
HUDSON VALLEY

CITY           SKY/WX    TMP DP  RH WIND       PRES   REMARKS
WHITE PLAINS   CLEAR     49  44  83 NW5       29.97R
NEWBURGH       CLEAR     46  45  93 W6        29.99R
MONTGOMERY     CLEAR     41  40  96 SW3       29.98R FOG
POUGHKEEPSIE   CLEAR     41  38  89 CALM      29.97R
ALBANY         PTCLDY    43  40  89 S3        29.97R
$$

NJZ001-105-106-008-010-013-015-019>022-104-181200-
NEW JERSEY

CITY           SKY/WX    TMP DP  RH WIND       PRES   REMARKS
NEWARK/LIBERTY PTCLDY    55  47  74 SW3       29.99R
TETERBORO      CLEAR     51  45  79 CALM      29.97R
CALDWELL       CLEAR     47  44  90 CALM      30.00R
MORRISTOWN     CLEAR     43  43 100 CALM      30.00R
SOMERVILLE     CLEAR     43  41  93 CALM      29.99R
SUSSEX         CLEAR     41  39  93 CALM      30.01R
ANDOVER          N/A     43  42  97 CALM      30.00R
TRENTON        CLEAR     51  48  89 CALM      29.99R
MILLVILLE      CLEAR     54  53  97 CALM      30.00R
ATLANTIC CITY  CLEAR     53  51  93 CALM      29.99R
WRIGHTSTOWN    CLEAR     49  49  99 VRB2      29.96R
TOMS RIVER     CLEAR     45  43  93 CALM      30.00R
BELMAR         CLEAR     54  46  76 W5        29.99R
$$

PAZ047>061-062-071-181200-
EASTERN PENNSYLVANIA

CITY           SKY/WX    TMP DP  RH WIND       PRES   REMARKS
PHILADELPHIA   PTCLDY    57  52  83 NW5       30.01R
ALLENTOWN      FAIR      45  45 100 CALM      30.02R FOG
SCRANTON       CLEAR     43  41  93 CALM      30.02R FOG
$$

CTZ002-004>006-009-010-012-RIZ004-006-007-MAZ004-011-015-181200-
SOUTHERN NEW ENGLAND
 IN CT

CITY           SKY/WX    TMP DP  RH WIND       PRES   REMARKS
BRADLEY INTL   CLEAR     44  40  85 CALM      29.95S
HARTFORD       FOG       40  39  97 MISG      29.97R VSB 3/4
DANBURY        CLEAR     40  36  86 CALM      29.99R
WTRBRY/OXFORD  CLEAR     48  39  71 CALM      29.99R
BRIDGEPORT     CLEAR     47  45  93 CALM      29.97R
MERIDEN        FOG       42  40  92 CALM      29.98R VSB 1
NEW HAVEN      CLEAR     43  42  97 CALM      29.97R
CHESTER        FAIR      52  46  82 NW5       29.97R
GROTON         CLEAR     50  45  83 N5        29.95R
WILLIMANTIC    PTCLDY    40  38  93 NE3       29.97R

 IN RI

CITY           SKY/WX    TMP DP  RH WIND       PRES   REMARKS
PROVIDENCE     CLEAR     50  44  80 W3        29.95R
BLOCK ISLAND   CLEAR     48  43  81 W5        29.95R
WESTERLY       CLEAR     45  44  97 CALM      29.96R

 IN MA

CITY           SKY/WX    TMP DP  RH WIND       PRES   REMARKS
BOSTON         SUNNY     53  43  68 W8        29.94R
WORCESTER      CLEAR     50  41  71 W13       29.95R
WESTFIELD      CLEAR     44  41  89 CALM      29.96R FOG
PROVINCETOWN   SUNNY     46  43  87 SW5       29.94R
NANTUCKET      SUNNY     45  43  93 W5        29.93R
$$

ANZ330-335-338-340-345-350-353-355-181200-
COASTAL MARINE OBSERVATIONS


STATION/POSITION TIME  SKY/WX   TEMP    WIND        PRES    VSBY  WAVE
                                AIR SEA DIR/SP/G                  HT/PER
                 (UTC)          (F)     (DEG/KT/KT) (MB)    (MI)  (FT/S)
NY HARB ENTRANCE 1050            54 46  330/  8/  8 1014.9          3/ 7
4S FIRE IS       1003               44                N/A           3/ 9
20S FIRE ISLAND  0950               44              1015.0          3/ 7
23SW MTP         1050                                 N/A           3/ 6
HUDSON CANYON    NOT AVBL
EXECUTION ROCKS  NOT AVBL
WESTERN LI SOUND NOT AVBL
CENTRAL LI SOUND NOT AVBL
EASTERN LI SOUND 1000            45     280/  4/  6   N/A
ROBBINS REEF     1000            59     280/  7/  7 1013.8
$$


>>>>>>>>>>>>>>>>>>>>>>>>>>>> KEY <<<<<<<<<<<<<<<<<<<<<<<<<<<
>                                                          <
>     SKY/WX - SKY CONDITION/PRESENT WEATHER               <
>     TMP    - TEMPERATURE IN FAHRENHEIT                   <
>     DP     - DEWPOINT IN FAHRENHEIT                      <
>     RH     - RELATIVE HUMIDITY IN PERCENT                <
>     WIND   - DIRECTION AND SPEED IN MPH                  <
>     PRES   - MEAN SEA LEVEL PRESSURE IN INCHES OF HG     <
>     WCI    - WIND CHILL INDEX                            <
>     VSB    - VISIBILITY IN MILES                         <
>     HX     - HEAT INDEX                                  <
>     TC     - TEMPERATURE IN CELSIUS                      <
>     VRB    - VARIABLE WIND DIRECTION                     <
>                                                          <
>>>>>>>>>>>>>>>>>>>>>>>>>>>> KEY <<<<<<<<<<<<<<<<<<<<<<<<<<<





USA.gov is the U.S. government's official web portal to all federal, state and local government web resources and services.